Back to catalog

STARLINK-4648

AliveCommunicationsVLEO
NORAD 53602·PAYLOAD·🇺🇸 United States

Launched Aug 28, 2022 from Cape Canaveral Space Force Station

Loading…

Next Passes (next 24 hours)

TLE

FreshSource: CelesTrak SupGP

Epoch: Sep 14, 2026, 21:58 UTC

1 53602C 22104Q   26257.91576389  .00016485  00000+0  48717-3 0  2575
2 53602  53.1591  99.5057 0001347  80.1940  63.9659 15.34374481    13

Track STARLINK-4648 in real time with AllMySat

Download on the App Store